This is the latest recevied weather packets stored in our database for station/object 2E0RGX-13. If no packets are shown the sender has not sent any weather packets the latest 10 day(s).
| Time | Temp. | Humidity | Pressure | Rain* | Wind** | Luminosity | Snow |
|---|---|---|---|---|---|---|---|
| 1778016390 | 11.11° C | 82% | 1009.7 hPa | 0.25 mm | - | 0 W/m² | - |
| 1778016086 | 11.11° C | 81% | 1009.6 hPa | 0 mm | - | 0 W/m² | - |
| 1778015782 | 11.11° C | 81% | 1009.9 hPa | 0 mm | - | 0 W/m² | - |
| 1778015478 | 11.67° C | 80% | 1009.6 hPa | 0 mm | - | 0 W/m² | - |
| 1778015174 | 11.67° C | 80% | 1009.7 hPa | 0 mm | - | 0 W/m² | - |
| 1778014870 | 12.22° C | 78% | 1009.6 hPa | 0 mm | - | 0 W/m² | - |
| 1778014565 | 12.22° C | 74% | 1009.6 hPa | 0 mm | - | 0 W/m² | - |
| 1778014262 | 12.78° C | 71% | 1009.6 hPa | 0 mm | - | 0 W/m² | - |
| 1778013958 | 12.78° C | 68% | 1009.5 hPa | 0 mm | - | 0 W/m² | - |
| 1778013654 | 12.78° C | 67% | 1009.4 hPa | 0 mm | - | 0 W/m² | - |
| 1778013350 | 12.78° C | 68% | 1009.3 hPa | 0 mm | - | 0 W/m² | - |
| 1778013046 | 12.78° C | 69% | 1009.2 hPa | 0 mm | - | 0 W/m² | - |
| 1778012742 | 12.78° C | 71% | 1009.4 hPa | 0 mm | - | 0 W/m² | - |
| 1778012438 | 12.78° C | 71% | 1009.3 hPa | 0 mm | - | 0 W/m² | - |
| 1778012134 | 12.78° C | 70% | 1009 hPa | 0 mm | - | 0 W/m² | - |
| 1778011830 | 12.78° C | 70% | 1009 hPa | 0 mm | - | 0 W/m² | - |
| 1778011525 | 12.78° C | 70% | 1009.1 hPa | 0 mm | - | 0 W/m² | - |
| 1778011221 | 12.78° C | 70% | 1009.1 hPa | 0 mm | - | 0 W/m² | - |
| 1778010917 | 12.78° C | 70% | 1008.8 hPa | 0 mm | - | 0 W/m² | - |
| 1778010614 | 12.78° C | 70% | 1008.5 hPa | 0 mm | - | 0 W/m² | - |
| 1778010310 | 12.78° C | 69% | 1008.6 hPa | 0 mm | - | 0 W/m² | - |
| 1778010006 | 12.78° C | 69% | 1008.7 hPa | 0 mm | - | 0 W/m² | - |
| 1778009702 | 13.33° C | 68% | 1008.6 hPa | 0 mm | - | 0 W/m² | - |
| 1778009398 | 13.33° C | 68% | 1008.7 hPa | 0 mm | - | 0 W/m² | - |
| 1778009094 | 13.33° C | 69% | 1008.6 hPa | 0 mm | - | 0 W/m² | - |
* Rain latest hour (hover to see other rain measurements)
** Current wind speed in m/s (hover to see current wind gust speed)